Flag for Canada Weather past 2 weeks in Laval, Quebec, Canada

Now
66 °F

Passing clouds.


Feels Like: 66 °F
Forecast: 60 / 74 °F
Wind: 8 mph from West

Location: Montreal / Mirabel

Current Time: Aug 4, 2015 at 10:01:49 AM

Latest Report: Aug 4, 2015 at 9:00 AM


Visibility: 45 mi

Pressure: 29.79 "Hg

Humidity: 83%

Dew point: 61 °F

Location of LavalLocation

Historic Weather in Laval — Graph

°F

Laval temperature yesterday

Maximum temperature yesterday: 73 °F (at 2:55 PM)
Minimum temperature yesterday: 63 °F (at 4:00 AM)
Average temperature yesterday: 68 °F

Past Weeks' High & Low Weather Summary

 TemperatureHumidityPressure
High88 °F (Jul 29, 4:00 PM)100% (Jul 21, 12:00 PM)30.02 "Hg (Jul 21, 12:00 PM)
Low55 °F (Jul 22, 3:00 AM)47% (Jul 23, 3:00 PM)29.50 "Hg (Jul 21, 2:50 PM)
Average69 °F81%29.80 "Hg
* Reported Jul 20 9:00 AM — Aug 4 9:00 AM, Laval, Weather by CustomWeather, © 2015

Note: Actual official high and low records may vary slightly from our data, if they occured in-between our weather recording intervals... More about our weather records

Advertising

Laval weather history for previous 24 hours

 ConditionsComfort  
Time TempWeatherWind HumidityBarometerVisibility
9:00 AM
Tue, Aug 4
66 °FPassing clouds.8 mph83%29.79 "Hg45 mi
8:00 AM63 °FPassing clouds.3 mph88%29.79 "Hg25 mi
7:00 AM61 °FLight fog.5 mph94%29.79 "Hg10 mi
6:00 AM59 °FPartly cloudy.5 mph94%29.77 "Hg10 mi
5:00 AM59 °FFog.5 mph100%29.76 "Hg15 mi
4:00 AM59 °FPassing clouds.No wind100%29.75 "Hg25 mi
3:00 AM61 °FPassing clouds.No wind100%29.74 "Hg25 mi
2:00 AM61 °FPassing clouds.No wind100%29.74 "Hg25 mi
1:00 AM63 °FPassing clouds.2 mph94%29.74 "Hg25 mi
12:00 AM63 °FPassing clouds.3 mph88%29.73 "Hg25 mi
11:00 PM
Mon, Aug 3
64 °FPassing clouds.5 mph88%29.73 "Hg25 mi
10:00 PM63 °FPassing clouds.No wind94%29.73 "Hg25 mi
9:00 PM63 °FPassing clouds.3 mph94%29.71 "Hg25 mi
8:00 PM70 °FPassing clouds.No wind78%29.69 "Hg45 mi
7:00 PM72 °FBroken clouds.7 mph73%29.67 "Hg45 mi
6:00 PM73 °FPartly sunny.5 mph74%29.67 "Hg45 mi
5:00 PM73 °FBroken clouds.8 mph69%29.66 "Hg45 mi
4:00 PM73 °FBroken clouds.10 mph74%29.68 "Hg45 mi
3:00 PM73 °FPartly sunny.10 mph74%29.68 "Hg45 mi
2:55 PM73 °FBroken clouds.6 mph78%29.69 "Hg45 mi
2:00 PM70 °FSprinkles. Mostly cloudy.7 mph83%29.70 "Hg15 mi
1:00 PM70 °FMostly cloudy.12 mph83%29.70 "Hg45 mi
12:00 PM70 °FPartly sunny.9 mph83%29.68 "Hg45 mi
11:00 AM68 °FSprinkles. More clouds than sun.8 mph88%29.67 "Hg45 mi
10:47 AM68 °FSprinkles. Cloudy.8 mph88%29.67 "Hg45 mi
10:00 AM66 °FSprinkles. Mostly cloudy.8 mph94%29.66 "Hg45 mi
Weather by CustomWeather, © 2015

See weather overviewHow to use our weather pages